Preview of NWS' New Version of Forecast
This preview is not operational and should not be used for support decisions.

Regional Weather Roundup (RWR)

Issued by National Weather Service (NWS)

                            
000
ASUS43 KTOP 231708
RWRKS 

WEATHER ROUNDUP FOR KANSAS
NATIONAL WEATHER SERVICE GOODLAND KS
1200 PM CDT MON SEP 23 2019

NOTE:  "FAIR" INDICATES FEW OR NO CLOUDS BELOW 12,000 FEET WITH NO
SIGNIFICANT WEATHER AND/OR OBSTRUCTIONS TO VISIBILITY.

KSZ001>006-013>018-027>032-041>047-231800-
NORTHWEST KANSAS
  
CITY           SKY/WX    TMP DP  RH WIND       PRES   REMARKS
GOODLAND       SUNNY     72  58  61 S20G28    30.10F                  
HAYS           SUNNY     77  57  50 SW10      30.10F                  
HILL CITY      SUNNY     76  57  51 SW13      30.10F                  
RUSSELL        SUNNY     77  55  46 S10       30.09F                  
$$

KSZ061>065-074>080-084>089-231800-
SOUTHWEST KANSAS
  
CITY           SKY/WX    TMP DP  RH WIND       PRES   REMARKS
DODGE CITY     SUNNY     80  60  50 S14G24    30.12F                  
ELKHART        SUNNY     78  63  61 S16       30.12F                  
GARDEN CITY    SUNNY     77  61  57 S17       30.11F                  
GREAT BEND     SUNNY     78  54  43 S14       30.10F                  
LIBERAL        SUNNY     79  63  57 SE14G20   30.12F                  
PRATT          SUNNY     79  55  42 S6        30.12F                  
$$

KSZ066>073-081>083-090>101-231800-
SOUTHEAST KANSAS
  
CITY           SKY/WX    TMP DP  RH WIND       PRES   REMARKS
CHANUTE        SUNNY     77  60  55 E9        30.12S                  
COFFEYVILLE    SUNNY     77  64  64 E8        30.10S                  
HUTCHINSON     SUNNY     78  55  44 S10       30.11F                  
MEDICINE LODGE   N/A     78  59  51 VRB7      30.10S                  
NEWTON         SUNNY     75  57  53 S8        30.13F                  
PARSONS        SUNNY     76  66  71 VRB3      30.13S                  
WICHITA INTL   MOSUNNY   78  58  49 S6        30.10F                  
WICHITA JABRA  SUNNY     77  58  51 VRB7      30.11F                  
WINFIELD       SUNNY     77  64  64 S8        30.12S                  
$$

KSZ007>012-019>026-033>040-048>060-102>105-231800-
NORTHEAST KANSAS
  
CITY           SKY/WX    TMP DP  RH WIND       PRES   REMARKS
CONCORDIA      SUNNY     78  55  44 S10       30.10F                  
EMPORIA        SUNNY     75  60  59 SE12      30.12F                  
LAWRENCE       SUNNY     74  61  63 S6        30.13F                  
MANHATTAN      SUNNY     76  60  57 S6        30.11S                  
MARYSVILLE     SUNNY     75  61  60 SW13      30.11S                  
OLATHE IND     SUNNY     73  58  59 SE8       30.14F                  
OLATHE EXE     SUNNY     71  62  73 S6        30.14S                  
SALINA         SUNNY     78  55  44 SE12G17   30.10F                  
TOPEKA BILLARD SUNNY     74  59  59 VRB6      30.12F                  
TOPEKA FORBES  SUNNY     75  60  59 E6        30.13S                  
$$